カタログに戻る

DELTA 1 DEB

運用中LEO
NORAD 10713·DEBRIS·🇺🇸 United States

打ち上げ Jul 29, 1976 から Vandenberg Space Force Base

Loading…

次のパス (今後24時間)

TLE

最新Source: Space-Track

元期: Sep 14, 2026, 00:57 UTC

1 10713U 76077AJ  26257.03970985  .00001822  00000-0  53284-2 0  9999
2 10713 101.5584  97.0704 0126487  58.3849  93.5305 13.08041087339192

AllMySatでDELTA 1 DEBをリアルタイム追跡

Download on the App Store